Find Starlink 34296

NORAD ID: 64216 Int'l Des: 2025-117 Owner: SPXS Country: US Constellation: starlink operational
LEOCIRCULAR

リアルタイム位置

3D地球を読み込み中...

Starlink 34296について

説明を読み込み中...

次回通過

Passes for default location (London). Set your location on the main map for personalized predictions.

高度履歴

Loading altitude history...

軌道要素

1 64216U 25117P 26106.61220634 .00020370 00000-0 69756-3 0 9992
2 64216 53.1580 223.3230 0001189 62.3365 297.7756 15.30220538 50368
Epoch: Apr 16, 2026 • Age: 27 hours

現在のステータス

高度 475.4 km
速度 7.63 km/s
衛星直下点 7.84°N, 84.96°W
打ち上げ日 May 31, 2025
運用期間 0.8 years
タイプ internet

技術仕様

分類 Payload
質量 575.00 kg
乾燥質量 530.00 kg
総質量 575.00 kg
長さ 0.30 m
直径 4.10 m
スパン 29.00 m
形状 Box + pan
製造者 SPXS
バスタイプ Starlink V2MO
フェーズステータス In Orbit
所有者/国 SPXS/US

Most Searched